Content
SEND FEEDBACK

Daily
Averages
Monthly
Summary
United States of America

DELAWARE LAKE, OHIO


Home > North America > United States > Ohio
Elevation: 930 feet     Latitude: 40 22N     Longitude: 083 04W

WEATHER
 
SELECT A DAY
Number of Records: 83,039;   Date Range: 3/14/11 - 10/18/14
 
SHARE

PRINT THIS DATA

[ ← Previous Day ]
WEATHER ALMANAC - JANUARY 23, 2013
[ Next Day → ]
[ °C ]   °F
Weather ElementAverageHighLow
Temperature14.3 °F21.2 °F (3:23 pm)6.8 °F (5:43 am)
Dewpoint3.6 °F14 °F (9:03 pm)-0.4 °F (12:23 am)
Humidity64.3 %86 % (9:03 pm)39 % (3:23 pm)
Barometer30.21 in30.30 in (2:43 am)30.06 in (11:03 pm)
Wind Speed6.8 mph13.8 mph (12:03 pm)
Wind Gust18.4 mph (11:44 am)
Weather ElementAverage
Visibility8.9 mi
Wind DirectionWSW (243.2 °)

Weather ElementTotal
Precipitation---
Heating Degree Days51 (Base 65)
Averaged from 71 records on January 23, 2013
WEATHER CONDITIONS BREAKOUT
WIND DIRECTION BREAKOUT
WEATHER BY HOUR - JANUARY 23, 2013
[ °C ]   °F
Local TimeTemperatureDewpointHumidityBarometerVisibilityWind DirectionWind SpeedGust SpeedPrecipitationEventsConditions
12:23 AM10.4 °F-0.4 °F62 %30.29 in10.0 miWest (260°)5.8 mphClear
12:43 AM10.4 °F-0.4 °F62 %30.29 in10.0 miWest (260°)4.6 mphClear
1:03 AM10.4 °F-0.4 °F62 %30.29 in10.0 miWest (270°)5.8 mphClear
1:23 AM10.4 °F-0.4 °F62 %30.29 in10.0 miWest (270°)5.8 mphClear
1:43 AM10.4 °F-0.4 °F62 %30.28 in10.0 miWest (270°)4.6 mphScattered Clouds
2:03 AM8.6 °F1.4 °F73 %30.28 in10.0 miWest (270°)3.5 mphMostly Cloudy
2:23 AM8.6 °F1.4 °F73 %30.29 in10.0 miWest (270°)4.6 mphScattered Clouds
2:43 AM8.6 °F1.4 °F73 %30.30 in10.0 miWest (270°)4.6 mphScattered Clouds
3:03 AM8.6 °F1.4 °F73 %30.30 in10.0 miWest (280°)3.5 mphScattered Clouds
3:23 AM8.6 °F1.4 °F73 %30.29 in10.0 miWest (270°)3.5 mphOvercast
3:43 AM8.6 °F-0.4 °F67 %30.29 in10.0 miWest (270°)6.9 mphMostly Cloudy
4:04 AM8.6 °F-0.4 °F67 %30.29 in10.0 miWest (270°)5.8 mphMostly Cloudy
4:23 AM8.6 °F-0.4 °F67 %30.29 in10.0 miWest (270°)8.1 mphMostly Cloudy
4:43 AM8.6 °F-0.4 °F67 %30.28 in10.0 miWest (270°)4.6 mphScattered Clouds
5:04 AM8.6 °F-0.4 °F67 %30.29 in10.0 miWest (270°)5.8 mphScattered Clouds
5:23 AM8.6 °F-0.4 °F67 %30.28 in10.0 miCalmMostly Cloudy
5:43 AM6.8 °F-0.4 °F72 %30.29 in10.0 miWSW (240°)3.5 mphScattered Clouds
6:03 AM6.8 °F-0.4 °F72 %30.29 in10.0 miSW (230°)4.6 mphScattered Clouds
6:23 AM6.8 °F-0.4 °F72 %30.29 in10.0 miSW (230°)3.5 mphScattered Clouds
6:43 AM6.8 °F-0.4 °F72 %30.29 in10.0 miWSW (240°)3.5 mphScattered Clouds
7:03 AM8.6 °F1.4 °F73 %30.29 in10.0 miWSW (240°)3.5 mphMostly Cloudy
7:23 AM8.6 °F1.4 °F73 %30.30 in10.0 miWSW (240°)3.5 mphOvercast
7:43 AM8.6 °F1.4 °F73 %30.29 in10.0 miWSW (250°)3.5 mphOvercast
8:03 AM10.4 °F1.4 °F67 %30.29 in10.0 miWSW (240°)5.8 mphOvercast
8:23 AM10.4 °F1.4 °F67 %30.28 in10.0 miWSW (250°)5.8 mphOvercast
8:43 AM10.4 °F1.4 °F67 %30.28 in10.0 miWSW (250°)3.5 mphOvercast
9:03 AM10.4 °F1.4 °F67 %30.29 in10.0 miWSW (250°)8.1 mphOvercast
9:23 AM12.2 °F1.4 °F62 %30.29 in10.0 miWest (260°)6.9 mphOvercast
9:43 AM12.2 °F1.4 °F62 %30.29 in10.0 miWSW (240°)8.1 mphOvercast
10:03 AM12.2 °F1.4 °F62 %30.29 in10.0 miWSW (240°)6.9 mphOvercast
10:23 AM12.2 °F1.4 °F62 %30.29 in10.0 miWSW (250°)9.2 mphOvercast
10:44 AM14.0 °F1.4 °F57 %30.28 in10.0 miSW (230°)9.2 mphOvercast
11:03 AM14.0 °F1.4 °F57 %30.27 in10.0 miSW (230°)9.2 mphOvercast
11:23 AM15.8 °F3.2 °F58 %30.25 in10.0 miSW (220°)8.1 mphOvercast
11:44 AM15.8 °F1.4 °F53 %30.26 in10.0 miWest (260°)9.2 mph18.4 mphOvercast
12:03 PM17.6 °F3.2 °F53 %30.26 in10.0 miSW (230°)13.8 mph17.3 mphOvercast
12:23 PM17.6 °F1.4 °F49 %30.24 in10.0 miSW (220°)12.7 mphOvercast
12:44 PM17.6 °F1.4 °F49 %30.22 in10.0 miSSW (210°)9.2 mphOvercast
1:03 PM17.6 °F1.4 °F49 %30.21 in10.0 miWSW (240°)11.5 mphOvercast
1:23 PM17.6 °F1.4 °F49 %30.20 in10.0 miWSW (250°)10.4 mphOvercast
1:43 PM19.4 °F1.4 °F46 %30.18 in10.0 miWSW (240°)9.2 mphOvercast
2:03 PM19.4 °F1.4 °F46 %30.17 in10.0 miSW (220°)10.4 mphOvercast
2:23 PM19.4 °F1.4 °F46 %30.17 in10.0 miWSW (250°)10.4 mphOvercast
2:43 PM19.4 °F1.4 °F46 %30.16 in10.0 miWSW (240°)11.5 mphOvercast
3:03 PM19.4 °F-0.4 °F42 %30.15 in10.0 miWSW (240°)8.1 mphOvercast
3:23 PM21.2 °F-0.4 °F39 %30.15 in10.0 miWSW (250°)12.7 mphOvercast
3:43 PM19.4 °F-0.4 °F42 %30.15 in10.0 miWSW (250°)8.1 mphOvercast
4:03 PM19.4 °F1.4 °F46 %30.15 in10.0 miWest (270°)9.2 mphOvercast
4:23 PM19.4 °F1.4 °F46 %30.14 in10.0 miWest (270°)6.9 mphOvercast
4:43 PM19.4 °F1.4 °F46 %30.13 in10.0 miWSW (240°)10.4 mphOvercast
5:03 PM19.4 °F1.4 °F46 %30.12 in10.0 miSW (230°)9.2 mphOvercast
5:23 PM19.4 °F1.4 °F46 %30.12 in10.0 miSW (220°)9.2 mphOvercast
5:43 PM19.4 °F3.2 °F49 %30.11 in10.0 miSW (220°)9.2 mphOvercast
6:03 PM19.4 °F5.0 °F54 %30.11 in10.0 miSW (230°)9.2 mphOvercast
6:24 PM19.4 °F5.0 °F54 %30.11 in10.0 miSW (230°)8.1 mphOvercast
6:43 PM17.6 °F6.8 °F63 %30.12 in10.0 miSW (230°)11.5 mphOvercast
7:03 PM17.6 °F8.6 °F68 %30.11 in10.0 miWSW (240°)11.5 mphOvercast
7:24 PM17.6 °F10.4 °F73 %30.12 in5.0 miWSW (240°)9.2 mphSnowLight Snow
7:43 PM17.6 °F12.2 °F79 %30.11 in4.0 miWSW (240°)6.9 mphSnowLight Snow
8:03 PM17.6 °F12.2 °F79 %30.10 in4.0 miWSW (250°)8.1 mphSnowLight Snow
8:24 PM17.6 °F12.2 °F79 %30.10 in4.0 miSW (230°)3.5 mphSnowLight Snow
8:43 PM17.6 °F12.2 °F79 %30.09 in4.0 miSW (230°)4.6 mphSnowLight Snow
9:03 PM17.6 °F14.0 °F86 %30.08 in4.0 miSW (230°)6.9 mphSnowLight Snow
9:24 PM17.6 °F14.0 °F86 %30.08 in5.0 miWSW (250°)3.5 mphSnowLight Snow
9:43 PM17.6 °F14.0 °F86 %30.07 in10.0 miWSW (250°)3.5 mphSnowLight Snow
10:03 PM17.6 °F14.0 °F86 %30.07 in10.0 miWSW (250°)3.5 mphSnowLight Snow
10:23 PM17.6 °F14.0 °F86 %30.08 in5.0 miWSW (250°)4.6 mphSnowLight Snow
10:43 PM17.6 °F14.0 °F86 %30.07 in3.0 miWest (260°)4.6 mphSnowLight Snow
11:03 PM17.6 °F14.0 °F86 %30.06 in3.0 miWSW (250°)3.5 mphSnowLight Snow
11:23 PM17.6 °F14.0 °F86 %30.06 in1.8 miWSW (250°)3.5 mphSnowLight Snow
11:43 PM17.6 °F14.0 °F86 %30.06 in1.5 miWSW (240°)3.5 mphSnowLight Snow
Hourly data recorded from KDLZ, located miles away from Delaware Lake, Ohio







STORIES FROM OUR PARTNERS